MCBH Kaneohe Bay, HI

9:17 AM HST on December 05, 2016 (GMT -1000)
Kaneohe Bay Marine Corps Air Facility

Weather History for PHNG - July, 2013

Change the Weather History Date:

Saturday, July 13, 2013

  Actual Average Record
Temperature  
Mean Temperature 78 °F -  
Max Temperature 83 °F 79 °F 84 °F (1997)
Min Temperature 73 °F 72 °F 71 °F (1998)
Cooling Degree Days 13    
Growing Degree Days 28 (Base 50)    
Moisture  
Dew Point 67 °F    
Average Humidity 65    
Maximum Humidity 80    
Minimum Humidity 55    
Precipitation  
Precipitation 0.00 in - - ()
Sea Level Pressure  
Sea Level Pressure 29.99 in    
Wind  
Wind Speed 8 mph (ENE)    
Max Wind Speed 13 mph    
Max Gust Speed 21 mph    
Visibility 9 miles    
Events      
Averages and records for this station are not official NWS values.
T = Trace of Precipitation, MM = Missing Value Source: NWS Daily Summary

Daily Weather History Graph

Daily Weather History Graph

Search for Another Location

Airport or City:

Trip Planner

Search our weather history database for the weather conditions in past years. The results will help you decide how hot, cold, wet, or windy it might be!

Date:

Astronomy

Jul. 13, 2013 Rise Set
Actual Time 5:56 AM HST 7:16 PM HST
Civil Twilight 5:32 AM HST 7:41 PM HST
Nautical Twilight 5:03 AM HST 8:10 PM HST
Astronomical Twilight 4:33 AM HST 8:40 PM HST
Moon 10:38 AM HST (7/13) 10:52 PM HST (7/13)
Length of Visible Light 14h 08m
Length of Day
13h 19m
Waxing Crescent, 27% of the Moon is Illuminated
Jul 13
Waxing Crescent
Jul 15
First Quarter
Jul 22
Full
Jul 29
Last Quarter
Aug 6
New

Hourly Weather History & Observations

Time (HST) Temp. Heat Index Dew Point Humidity Pressure Visibility Wind Dir Wind Speed Gust Speed Precip Events Conditions
12:57 AM - - - N/A% 30.02 in 10.0 mi East 5.8 mph - N/A   Scattered Clouds
1:57 AM - - - N/A% 30.00 in 10.0 mi East 4.6 mph - N/A   Mostly Cloudy
2:04 AM - - - N/A% 30.01 in 6.2 mi East 3.5 mph - N/A   Scattered Clouds
2:57 AM - - - N/A% 29.99 in 10.0 mi ENE 8.1 mph - N/A   Partly Cloudy
3:54 AM - - - N/A% 29.99 in 6.2 mi ENE 8.1 mph - N/A   Mostly Cloudy
3:57 AM - - - N/A% 29.98 in 10.0 mi ENE 10.4 mph - N/A   Mostly Cloudy
4:57 AM 73.4 °F - 66.9 °F 80% 29.97 in 10.0 mi East 8.1 mph - N/A   Scattered Clouds
5:57 AM 73.4 °F - 66.0 °F 78% 29.98 in 10.0 mi ENE 5.8 mph - N/A   Mostly Cloudy
6:57 AM 75.2 °F - 66.0 °F 73% 29.99 in 10.0 mi East 8.1 mph - N/A   Mostly Cloudy
7:57 AM 79.2 °F - 66.9 °F 66% 30.01 in 10.0 mi East 9.2 mph - N/A   Mostly Cloudy
8:57 AM 78.1 °F - 64.9 °F 64% 30.01 in 10.0 mi ENE 10.4 mph 20.7 mph N/A   Scattered Clouds
9:57 AM 81.1 °F 83.5 °F 66.9 °F 62% 30.02 in 10.0 mi ENE 8.1 mph 18.4 mph N/A   Scattered Clouds
10:57 AM 82.4 °F 84.8 °F 66.9 °F 59% 30.01 in 10.0 mi ENE 12.7 mph - N/A   Scattered Clouds
11:57 AM 82.4 °F 84.8 °F 66.9 °F 59% 30.01 in 10.0 mi ENE 10.4 mph 18.4 mph N/A   Scattered Clouds
12:57 PM 83.7 °F 85.8 °F 66.0 °F 55% 29.99 in 10.0 mi ENE 11.5 mph 19.6 mph N/A   Scattered Clouds
1:57 PM 83.7 °F 86.2 °F 66.9 °F 57% 29.99 in 10.0 mi ENE 12.7 mph 19.6 mph N/A   Partly Cloudy
2:57 PM 83.7 °F 85.8 °F 66.0 °F 55% 29.97 in 10.0 mi ENE 11.5 mph 18.4 mph N/A   Scattered Clouds
3:30 PM - - - N/A% - - North - - N/A   Unknown
3:57 PM 83.5 °F 86.0 °F 66.9 °F 57% 29.96 in 10.0 mi ENE 8.1 mph 19.6 mph N/A   Scattered Clouds
4:57 PM 82.9 °F 85.8 °F 68.0 °F 60% 29.95 in 10.0 mi ENE 9.2 mph 18.4 mph N/A   Scattered Clouds
5:57 PM 80.4 °F 82.7 °F 66.9 °F 63% 29.96 in 10.0 mi ENE 9.2 mph 16.1 mph N/A   Scattered Clouds
6:57 PM 79.7 °F - 66.9 °F 65% 29.96 in 10.0 mi ENE 8.1 mph 16.1 mph N/A   Scattered Clouds
7:57 PM 77.5 °F - 66.9 °F 70% 29.98 in - ENE 8.1 mph - N/A   Scattered Clouds
8:57 PM 77.5 °F - 66.9 °F 70% 29.98 in 10.0 mi ENE 8.1 mph - N/A   Scattered Clouds
9:57 PM 76.8 °F - 66.9 °F 71% 30.00 in 10.0 mi East 10.4 mph 19.6 mph N/A   Mostly Cloudy
10:57 PM 76.8 °F - 66.0 °F 69% 30.00 in 10.0 mi East 8.1 mph - N/A   Scattered Clouds
11:34 PM 77.0 °F - 66.2 °F 69% 30.01 in 6.2 mi ENE 9.2 mph 17.3 mph N/A   Mostly Cloudy
11:54 PM 77.0 °F - 66.2 °F 69% 30.00 in 6.2 mi ENE 10.4 mph - N/A   Scattered Clouds
11:57 PM 76.5 °F - 66.0 °F 70% 29.99 in 10.0 mi East 8.1 mph - N/A   Partly Cloudy